Tracking 30995 objects as of 6-Jul-2025
HD Live streaming from Space Station
objects crossing your sky now

OBJECT E

Track OBJECT E now!
10-day predictions


NORAD ID: 57008
Int'l Code: 2023-085E
Perigee: 436.8 km
Apogee: 444.9 km
Inclination: 97.5 °
Period: 93.3 minutes
Semi major axis: 6811 km
RCS: Unknown
Launch date: June 15, 2023
Source: People's Republic of China (PRC)
Launch site: Taiyaun Space Center, China (TSC)
Your satellite tracking list
Your tracking list is empty




NASA's NSSDC Master Catalog

Two Line Element Set (TLE):
1 57008U 23085E   25187.85274761  .00031014  00000-0  67563-3 0  9990
2 57008  97.4729 299.2732 0005962 149.9916 210.1675 15.44201196114411
Source of the keplerian elements: AFSPC